History for Miami, FL

Monday, January 28, 2013 — View Current Conditions

Jump to Data:

Date:
Airport Code:
Recently Viewed Airport Codes: KMIA
Daily Summary
  Actual Average Record
Temperature
Mean Temperature 75°F 69°F  
Max Temperature 80°F 77°F 87°F (1991)
Min Temperature 70°F 60°F 28°F (1940)
Degree Days
Heating Degree Days 0 1  
Month to date heating degree days 4 53  
Since 1 July heating degree days 20 90  
Cooling Degree Days 10 5  
Month to date cooling degree days 242 140  
Year to date cooling degree days 242 140  
Growing Degree Days 26 (Base 50)    
Moisture
Dew Point 63°F    
Average Humidity 62    
Maximum Humidity 73    
Minimum Humidity 51    
Precipitation
Precipitation 0.00 in 0.05 in 1.51 in (1927)
Month to date precipitation 0.54 1.45  
Year to date precipitation 0.54 1.45  
Snow
Snow 0.00 in in in ()
Month to date snowfall 0.0  
Since 1 July snowfall 0.0  
Snow Depth 0.00 in    
Sea Level Pressure
Sea Level Pressure 30.26 in    
Wind
Wind Speed 13 mph (East)    
Max Wind Speed 21 mph    
Max Gust Speed 24 mph    
Visibility 10 miles    
Events      
T = Trace of Precipitation, MM = Missing Value Source: NWS Daily Summary

Show full METARS

(help) - Comma Delimited File

Hourly Observations

Time(EST) Temperature Dew Point Humidity Sea Level Pressure Visibility Wind Direction Wind Speed Gust Speed Precipitation Events Conditions
12:53 AM 73.0°F 64.0°F 73% 30.26 in 10.0 miles East 16.1 mph - N/A   Mostly Cloudy
1:53 AM 73.0°F 64.0°F 73% 30.26 in 10.0 miles East 13.8 mph - N/A   Mostly Cloudy
2:53 AM 73.0°F 64.0°F 73% 30.25 in 10.0 miles East 16.1 mph - N/A   Scattered Clouds
3:53 AM 72.0°F 63.0°F 73% 30.25 in 10.0 miles East 15.0 mph - N/A   Scattered Clouds
4:53 AM 71.1°F 63.0°F 75% 30.24 in 10.0 miles East 12.7 mph - N/A   Scattered Clouds
5:53 AM 71.1°F 61.0°F 70% 30.25 in 10.0 miles East 10.4 mph - N/A   Clear
6:53 AM 71.1°F 62.1°F 73% 30.27 in 10.0 miles East 8.1 mph - N/A   Partly Cloudy
7:53 AM 73.0°F 62.1°F 68% 30.29 in 10.0 miles East 10.4 mph - N/A   Partly Cloudy
8:53 AM 75.9°F 62.1°F 62% 30.30 in 10.0 miles East 13.8 mph - N/A   Partly Cloudy
9:53 AM 78.1°F 61.0°F 56% 30.32 in 10.0 miles East 15.0 mph - N/A   Partly Cloudy
10:53 AM 79.0°F 61.0°F 54% 30.32 in 10.0 miles East 17.3 mph 21.9 mph N/A   Scattered Clouds
11:53 AM 79.0°F 60.1°F 52% 30.31 in 10.0 miles ESE 17.3 mph - N/A   Partly Cloudy
12:53 PM 80.1°F 61.0°F 52% 30.28 in 10.0 miles ESE 12.7 mph 24.2 mph N/A   Scattered Clouds
1:53 PM 79.0°F 61.0°F 54% 30.26 in 10.0 miles East 15.0 mph 20.7 mph N/A   Scattered Clouds
2:53 PM 79.0°F 63.0°F 58% 30.25 in 10.0 miles ESE 13.8 mph - N/A   Scattered Clouds
3:53 PM 79.0°F 62.1°F 56% 30.24 in 10.0 miles ESE 11.5 mph - N/A   Scattered Clouds
4:53 PM 77.0°F 63.0°F 62% 30.24 in 10.0 miles East 12.7 mph - N/A   Scattered Clouds
5:53 PM 75.0°F 63.0°F 66% 30.25 in 10.0 miles ESE 9.2 mph - N/A   Mostly Cloudy
6:53 PM 75.0°F 64.0°F 69% 30.25 in 10.0 miles East 12.7 mph - N/A   Mostly Cloudy
7:53 PM 73.9°F 64.0°F 71% 30.26 in 10.0 miles ESE 12.7 mph - N/A   Mostly Cloudy
8:53 PM 73.9°F 64.9°F 73% 30.25 in 10.0 miles ESE 13.8 mph - N/A   Scattered Clouds
9:53 PM 73.9°F 64.9°F 73% 30.25 in 10.0 miles East 12.7 mph - N/A   Scattered Clouds
10:53 PM 73.9°F 64.9°F 73% 30.25 in 10.0 miles East 9.2 mph - N/A   Scattered Clouds
11:53 PM 73.0°F 66.0°F 79% 30.25 in 10.0 miles East 10.4 mph - N/A   Scattered Clouds